Location: Althorst
(53.6379°N, 10.7715°E)
Time: 06:40:42
(UTC+00:00)

Cosmos 2278 Rocket - Pass Details

Date: 10 December 2019
Orbit: 843 x 844 km, 71.0° (Epoch: 25 January)

Event Time Altitude Azimuth Distance (km) Brightness Sun altitude
Rises 17:03:38 0° 324° (NW) 3,413 5.6 -17.4°
Reaches altitude 10° 17:06:15 10° 316° (NW) 2,474 5.0 -17.8°
Maximum altitude 17:11:21 36° 252° (WSW) 1,323 3.9 -18.5°
Drops below altitude 10° 17:16:25 10° 188° (S) 2,458 4.9 -19.3°
Sets 17:19:02 0° 180° (S) 3,388 5.5 -19.6°
